Погода в Томмоте

Погода в Томмоте : погода сейчас, прогноз погоды и архив. Всё, что Вы хотите узнать о погоде в Томмоте!

Поиск расширенной информации на нашем сайте:

Другие новости

Новости СМИ2

Главная страница сайта

Новости сайта

03.07.2017

Напоминаем, что на нашем специализированном сайте Метеоцентр.Азия вы можете получить высокодетализированные автоматические прогнозы погоды по пунктам России, СНГ и мира в авиационном формате (включающие направление и скорость ветра, видимость, явления погоды, количество и форму облачности, нижнюю и верхнюю границу облачности).

Рекомендуем: Смотрите подробности газонокосилки сабо ремонт тут.

Погода в Томмоте - сегодня

Время (UTC), дата Ветер
(°,м/с) 
Видим.   Явления Облачность Т
(°С)
Тd
(°С)
f(%) Тe
(°С)
Pmin
(гПа)
dP
(гПа)
Po
(мм)
O2
(г/м3)
Тmin Tmax R s Состояние
почвы
15 17.06.18 тихо ()   20000 м    9/9 600 м кучево-дожд. 
[Cb cap]
+11.8 +10.2 90 +14  1000.9  -0.1  726  278           
18 17.06.18 тихо ()   20000 м  в посл. час ливневой дождь  10/10 600 м кучево-дожд. 
[Cb cap]
+12.3 +11 92 +15  1002.2  1.3  727  278           
21 17.06.18 200 (Ю) 20000 м  слаб. ливневой дождь  10/10 600 м кучево-дожд. 
[Cb cap]
+11.6 +10.8 95 +16  1004.1  1.8  728  279           
03 18.06.18 170 (Ю) 20000 м    10/8 600 м кучево-дожд., верхняя 
[Cb cap|Ci sp]
+16.5 +8.7 60 +18  1004.8  -0.3  729  275           
06 18.06.18 170 (Ю) 20000 м    10/10 600 м кучево-дожд. 
[Cb cap]
+18.4 +7.9 50 +19  1003.7  -0.7  728  274           
09 18.06.18 210 (ЮЗ) 20000 м    10/8 600 м кучево-дожд., верхняя 
[Cb cap|Ci sp]
+19.1 +8.3 50 +20  1003.8  0.1  728  273           
15 18.06.18 030 (СВ) 20000 м    9/9 2000 м средняя 
[Ac As]
+9.2 +8.6 96 +10  1005.9  0.3  729  283           
18 18.06.18 340 (С) 20000 м    10/8 600 м кучево-дожд., верхняя 
[Cb cap|Cs]
+7.7 +7.1 96 +9  1006.3  0.3  729  285           
21 18.06.18 360 (С) 1000 м  дымка  10/10 1000 м 
[Sc]
+8 +7.1 94 +9  1006.9  0.6  730  284           
03 19.06.18 340 (С) 20000 м  слаб. ливневой дождь  10/8 600 м кучево-дожд., верхняя 
[Cb cap|Ci sp]
+17.1 +10.8 66 +21  1005.1  -0.1  729  275           
06 19.06.18 300 (СЗ) 20000 м  {ливн. осадки}  9/9 600 м кучево-дожд. 
[Cb cap]
+18.8 +10.7 59 +23  1004.9  -0.1  729  273           
09 19.06.18 060 (СВ) 20000 м    9/5 600 м кучево-дожд., средняя 
[Cb cap|Ac As]
+19.8 +8.8 49 +21  1004.4  -0.3  729  272           
15 19.06.18 тихо ()   20000 м    ясно 
+8.1 +6.6 90 +8  1006.1  0.2  729  284           
18 19.06.18 тихо ()   20000 м    3/0 верхняя 
[Ci fib]
+3.9 +3.7 99 +4  1006.6  729  289           
21 19.06.18 тихо ()   1000 м  дымка  ясно 
+6.3 +6.1 99 +6  1006.3  -0.1  729  286           
03 20.06.18 270 (З) 20000 м    3/3 600 м 
[Cu med, cong]
+21.7 +6.9 38 +22  1002.3  -1.4  728  270           
06 20.06.18 030 (СВ) 20000 м  в посл. час ливневой дождь  8/8 600 м кучево-дожд. 
[Cb cap]
+20.4 +8.4 46 +20  1001.1  -1.3  727  271           
09 20.06.18 040 (СВ) 20000 м    8/8 600 м кучево-дожд., верхняя 
[Cb cap|Ci fib]
+22 +7.6 39 +22  1000  -0.9  726  269           
15 20.06.18 180 (Ю) 20000 м    10/4 1000 м верхняя 
[Sc|Ci sp]
+8.7 +8.1 96 +10  1000.7  -0.3  725  282           
18 20.06.18 160 (Ю) 20000 м  слаб. ливневой дождь  10/8 600 м кучево-дожд., верхняя 
[Cb cap|Ci sp]
+10.5 +9.9 96 +14  1000.3  -0.2  725  280           
21 20.06.18 180 (Ю) 4000 м  ливневой дождь  10/10 600 м кучево-дожд. 
[Cb cap]
+10.8 +10.4 97 +14  1000.5  0.2  725  279           
03 21.06.18 тихо ()   10 км  слаб. ливневой дождь  10/10 600 м кучево-дожд. 
[Cb cap]
+14.5 +13.4 93 +21  999.2  -0.6  725  275           
06 21.06.18 210 (ЮЗ) 4000 м  ливневой дождь  10/10 600 м кучево-дожд. 
[Cb cap]
+14.5 +13.6 94 +23  998.7  -0.5  724  274           
09 21.06.18 тихо ()   20000 м  слаб. ливневой дождь  10/10 600 м кучево-дожд. 
[Cb cap]
+14.8 +13.7 93 +22  998.4  -0.2  724  274           
15 21.06.18 020 (С) 2000 м  ливневой дождь  10/10 600 м кучево-дожд. 
[Cb cap]
+12.6 +12.4 99 +19  999.8  0.4  725  277           
Время (UTC), дата Ветер
(°,м/с) 
Видим.   Явления Облачность Т
(°С)
Тd
(°С)
f(%) Тe
(°С)
Pmin
(гПа)
dP
(гПа)
Po
(мм)
O2
(г/м3)
Тmin Tmax R s Состояние
почвы

Для получения пояснительной информации подведите курсор к названию столбца.

ПОГОДА в Томмоте - архив

Всё, что Вы хотите узнать о погоде в Томмоте - удобно и подробно!

Выберите нужную дату (начиная с 1 января 2015* года) и нажмите кнопку "Найти".
Будут отображены архивные сводки погоды по пункту Томмот, начиная с указанной даты.


Отображать данные в формате CSV (для использования в таблицах Excel)


Внимание! Наш архив погоды предназначен исключительно для личного некоммерческого использования в познавательных целях. Если Вам необходимы официальные справки о состоянии погоды (для производственных, юридических, коммерческих и т.п. целей), обращайтесь в органы Росгидромета.

*Примечание: данная дата относится к архиву по метеостанциям СССР (Россия, СНГ, Балтия).
Архив по метеостанциям Зарубежной Европы и Азии (кроме Китая) хранится 10 дней, по другим регионам земного шара (Китай, Африка, Америка, Австралия, Океания) - 1 день.

Томмот - район местоположения метеостанции


Название, широта, долгота, высота метеостанции:
Томмот 58.9°ш. 126.3°д. 283 м над ур. моря [Российская Федерация]

Дополнительная информация

В oтличие oт бoльшинства пoгoдных сайтoв мы публикуем пoдрoбную метеoинфoрмацию в детальнoм прoфессиoнальнoм фoрмате.

Характеристики температуры и влажнoсти вoздуха измеряются на высoте 2 м в тени вдали oт зданий и деревьев.
Скoрoсть ветра измеряется на высoте 10 м (на урoвне рoста челoвека скoрoсть ветра ниже в 1.5-2 раза). Если метеoстанция нахoдится в гoрoде или в лесу, тo скoрoсть ветра занижена на 2-4 м/с пo сравнению с oткрытым местoм. Скoрoсть ветра над акватoриями крупных рек и oзёр, а также на вершинах хoлмoв на 2-5 м/с выше, чем в oбычных услoвиях.
Атмoсфернoе давление в разных тoчках местнoсти мoжет значительнo oтличаться oт давления на метеoстанции, в зависимoсти oт услoвий рельефа (при пoдъёме на 10 м давление пoнижается примернo на 1 мм рт.ст.).